FENGYUN 3F

Last updated on Thu Jul 03 2025 00:02:22 GMT+0000 (Coordinated Universal Time)

1 57490U 23111A 25183.59923211 .00000034 00000+0 36533-4 0 9994 2 57490 98.7264 254.3452 0001984 86.4423 273.6980 14.20049794 99257
UTC large
Height (km)
Speed (km/s)
/
Latitude / Longitude
Inclination (degrees)
Orbital Period (minutes)
Azimuth
Elevation
Range (km)
Doppler Factor

Next 0 passes for location: London (51.5072 / 0.1276)

Sorry there are no passes over London.